Regional Weather Roundup
Issued by NWS

Home | Current Version | Previous Version | Graphics & Text | Print | Product List | Glossary On
Versions: 1 2 3 4 5 6 7 8 9 10 11 12 13 14 15 16 17 18 19 20 21 22 23 24 25 26 27 28 29 30 31 32 33 34 35 36 37 38 39 40 41 42 43 44 45 46 47 48 49
000
ASUS45 KBOU 310407
RWRCO

WEATHER ROUNDUP FOR COLORADO
NATIONAL WEATHER SERVICE DENVER/BOULDER CO
900 PM MST FRI JAN 30 2015

NOTE: "FAIR" INDICATES FEW OR NO CLOUDS BELOW 12000 FEET WITH NO
SIGNIFICANT WEATHER AND/OR OBSTRUCTIONS TO VISIBILITY.

COZ001>005-013-030-031-310500-
...NORTHWEST COLORADO...

CITY           SKY/WX    TMP DP  RH WIND       PRES   REMARKS
CRAIG          CLOUDY    33  30  88 SE3       29.97F
HAYDEN         CLOUDY    34  28  80 NE5       29.97F WCI  30
MEEKER         LGT RAIN  34  33  96 CALM      29.95F VSB 1/2
MOUNT WERNER   NOT AVBL
STEAMBOAT SPGS CLOUDY    34  30  83 CALM      29.97F
WALDEN         CLOUDY    32  27  80 CALM      30.01F
$$

COZ006>008-011-310500-
...WEST CENTRAL VALLEYS...

CITY           SKY/WX    TMP DP  RH WIND       PRES   REMARKS
GRAND JUNCTION LGT RAIN  39  39 100 CALM      29.95F
MONTROSE       CLOUDY    38  37  97 CALM      29.99R
EAGLE          LGT SNOW  34  32  93 CALM      30.01F FOG
RIFLE          LGT RAIN  37  35  92 CALM      29.96S FOG
DELTA          LGT RAIN  41  40  98 CALM      29.96F
NUCLA          DRIZZLE   36  34  93 CALM      30.01S
$$

COZ017>023-064>068-310500-
...SOUTHWEST COLORADO...

CITY           SKY/WX    TMP DP  RH WIND       PRES   REMARKS
DURANGO        LGT RAIN  33  32  96 E5        30.01F WCI  29
CORTEZ         LGT RAIN  37  34  89 SW8       29.98S
PAGOSA SPRINGS LGT SNOW  34  34 100 CALM      30.04S
TELLURIDE      FOG       31  31 100 W5        29.99S VSB 1/4 WCI  26
WOLF CREEK PAS SNOW      23  23 100 SW10G16   30.10S VSB 1/4 WCI  12
$$

COZ009-010-012-014-032>034-037-058>063-310500-
...CENTRAL COLORADO...

CITY           SKY/WX    TMP DP  RH WIND       PRES   REMARKS
ASPEN          CLOUDY    32  30  92 CALM      29.96F
BUENA VISTA    LGT SNOW  31  30  96 CALM      30.07S
COPPER MTN     LGT SNOW  27  19  74 SE10      30.05F WCI  17
BERTHOUD PASS  HAZE      14   9  79 E37       30.06F VSB<1/4 WCI  -9
COTTONWOOD PAS LGT SNOW  32  28  86 CALM      30.07F
GUNNISON       CLOUDY    34  28  80 N8        30.02F WCI  27
KREMMLING      CLOUDY    30  27  86 CALM      30.02F
LEADVILLE      LGT SNOW  24  24 100 S9        30.03S FOG     WCI  14
MONARCH PASS   CLOUDY    21  19  93 MISG      30.18S
SALIDA         CLOUDY    33  32  97 CALM      30.14S
SUNLIGHT       LGT SNOW  30  28  93 E5          N/A  WCI  25
WILKERSON PASS LGT SNOW N/A N/A N/A E9        30.10F
$$

COZ069>075-310500-
...SAN LUIS VALLEY/SANGRE DE CRISTO MOUNTAINS...

CITY           SKY/WX    TMP DP  RH WIND       PRES   REMARKS
ALAMOSA        CLOUDY    30  28  92 CALM      30.05F
LA VETA PASS   LGT SNOW  27  27 100 E3        30.09F VSB 1
SAGUACHE       CLOUDY    30  28  93 NE3       30.07F
$$

COZ035-036-038>040-310500-
...NORTHERN COLORADO FRONT RANGE...

CITY           SKY/WX    TMP DP  RH WIND       PRES   REMARKS
DENVER INTL AP CLOUDY    39  27  62 NW8       30.07F
DMNS CITY PARK   N/A     42  26  53 NE5       30.07F
AURORA         CLOUDY    38  26  64 NW7       30.07F
FRONT RANGE AP NOT AVBL
ERIE MUNI ARPT CLOUDY    38  29  68 CALM      30.08F
BOULDER MUN AP CLOUDY    41  28  60 N6        30.07F
CENTENNIAL     CLOUDY    40  25  55 NW5       30.07F
BROOMFIELD     CLOUDY    41  27  56 N6        30.08F
FORT COLLINS   CLOUDY    39  25  56 CALM      30.10F
LONGMONT       CLOUDY    43  28  55 N5        30.10F
$$

COZ041-046-047-076>085-087-088-310500-
...PIKES PEAK/PALMER DIVIDE AND SOUTHERN FOOTHILLS...

CITY           SKY/WX    TMP DP  RH WIND       PRES   REMARKS
COLO. SPRINGS  CLOUDY    38  31  76 N16       30.07S
A. F. ACADEMY  CLOUDY    34  33  96 N9        30.07S WCI  27
ELLICOTT       CLOUDY   N/A N/A N/A NW8       30.05S
FALCON         CLOUDY    35  29  80 NW10G16   30.08S WCI  27
FORT CARSON    CLOUDY    39  31  71 N17       30.04F
LIMON          CLOUDY    34  32  92 CALM      30.05F
MONUMENT HILL  CLOUDY    32  28  86 NW9       30.07S WCI  24
TRINIDAD       LGT RAIN  35  30  82 W15       30.05F WCI  25
$$

COZ042>045-048>051-090-091-310500-
...NORTHEAST COLORADO...

CITY           SKY/WX    TMP DP  RH WIND       PRES   REMARKS
GREELEY ARPT   CLOUDY    37  25  60 NW7       30.07F
AKRON          MOCLDY    34  28  79 CALM      30.04S
BURLINGTON     CLOUDY    33  31  92 S14       30.08F WCI  23
WRAY           CLOUDY    37  33  85 S6        30.09S
STERLING       CLOUDY    36  30  80 N6        30.06R
HOLYOKE        NOT AVBL
FORT MORGAN    MOCLDY    34  28  76 NW9       30.07S WCI  27
$$

COZ086-089-092>099-310500-
...SOUTHEAST COLORADO...

CITY           SKY/WX    TMP DP  RH WIND       PRES   REMARKS
PUEBLO         CLOUDY    38  36  92 SE3       30.06F
LA JUNTA       CLOUDY    39  37  92 E5        30.06S
LAMAR          CLOUDY    37  35  92 S8        30.08F
SPRINGFIELD      N/A     33  32  96 S22       30.10S WCI  21
$$


USA.gov is the U.S. government's official web portal to all federal, state and local government web resources and services.